DELTA 1 DEB, 10843

Orbit data source: Space-Track

DELTA 1 DEB, 10843 is space debris in SSO originally from a launch on Thu, 29 Jul 1976 UTC launched from the Air Force Western Test Range (AFWTR). Debris objects in space refer to the collection of defunct objects orbiting the Earth. Examples of debris include non-operational satellites, rocket bodies, and fragments generated from explosions, collisions, or faulty payload assembly.

Loading next visibility...
Identifier
10843, 1976-077CP
Orbit
SSO
Country
Flag of USUS
Related business
Manufacturer
Unknown
Mission
Spacecraft
Bus & Motor
Unknown
Mass
Unknown
Launch date (UTC)
1976-07-29 (50 years ago)
Launch vehicle
Unknown
Launch site
Air Force Western Test Range (AFWTR)
Object type
Payload
Rocket body
Debris
Shape & HBR
Unknown shape, 0.1 m
Radar Cross Section
Small (<0.1 m²)

Expand to show TLE details & history
Last TLE update: 22 hours ago

TLE from 22 hours ago
0 DELTA 1 DEB
1 10843U 76077CP  26118.39814714  .00000014  00000-0  33840-3 0  9994
2 10843 101.7115  89.4556 0117649  26.1048 124.2871 12.58567932282971
Epoch: 2026-04-28T09:33Z
TLE epoch observation values (Epoch: 2026-04-28T09:33:19.912Z)
Latitude
27.89836°
Longitude
-83.98134°
Altitude
1,484.487 km
Speed
7.1 km/s
True Right ascension
18h 22m 54s
True Declination
27° 46' 10"
Sunlit
Object was in daylight at epoch
Visualization orbit readout
Latitude
Unknown
Longitude
Unknown
Altitude
Unknown
Speed
Unknown
Apparent Right ascension
Unknown
Apparent Declination
Unknown
Sunlit
N/A
Visualization observer readout
Local Sidereal Time
14:44:32
Azimuth
Unknown
Elevation
Unknown
Doppler factor
Unknown
Orbital elements
Apogee altitude
1,518.213 km
Perigee altitude
1,334.574 km
Semi-major axis
7,804.531 km
Eccentricity
0.01176
Inclination
101.7115°
RAAN
89.4556°
Arg. of periapsis
26.1048°
True anomaly
125.39176°
Mean anomaly
124.2871°
Eccentric anomaly
124.84035°
Mean motion
3.14791 °/min
Orbital period
114.36 mins
BSTAR
0.0003384
Loading maneuver chart data...
Computing Atmospheric mass density...
Loading historical data...
Loading historical data...
Loading historical data...
Loading historical data...
Loading historical data...
Loading historical data...
Loading historical data...

Documentation

Showing up to 5 results
|